STARLINK-11510, 62516

Orbit data source: Space-Track

STARLINK-11510, 62516 is a payload satellite owned by SpaceX/Seattle (US) in LEO that was launched on Wed, 08 Jan 2025 UTC via an FALCON 9 launch vehicle from the Air Force Eastern Test Range (AFETR). Payload-class satellites include a variety of spacecraft equipped with specific instruments for various scientific and technological missions. These include communications satellites like Starlink; space stations such as the ISS; scientific satellites like the Hubble; Earth observation satellites from companies like Planet Labs, Umbra, and HawkEye 360; GPS; miniature CubeSats for education and research; and military/defense satellites.

Loading next visibility...
Identifier
62516, 2025-004F
Orbit
LEO
Country
Flag of USUS
Related business
Manufacturer
SpaceX/Seattle
Mission
Operational Commercial Communications
Bus & Motor
STARLINK V2MD, Unknown motor
Mass
960 kg wet, ~910 kg dry
Launch date (UTC)
2025-01-08 (1 year ago)
Launch vehicle
FALCON 9
Launch site
Air Force Eastern Test Range (AFETR)
Object type
Payload
Rocket body
Debris
Shape & HBR
Box + 2 Pan, 18.1 m
Radar Cross Section
36.964 m², Large (>1 m²)

Expand to show TLE details & history
Last TLE update: 11 hours ago

TLE from 11 hours ago
0 STARLINK-11510
1 62516U 25004F   26095.19214665  .00307084  00000-0  23045-2 0  9995
2 62516  42.9997 271.2524 0000949 331.9488  28.1328 15.70889715 71376
Epoch: 2026-04-05T04:36Z
TLE epoch observation values (Epoch: 2026-04-05T04:36:41.470Z)
Latitude
-0.00005°
Longitude
8.57846°
Altitude
355.561 km
Speed
7.698 km/s
True Right ascension
18h 05m 00s
True Declination
0° 00' 00"
Sunlit
Object was in daylight at epoch
Visualization orbit readout
Latitude
Unknown
Longitude
Unknown
Altitude
Unknown
Speed
Unknown
Apparent Right ascension
Unknown
Apparent Declination
Unknown
Sunlit
N/A
Visualization observer readout
Local Sidereal Time
21:11:37
Azimuth
Unknown
Elevation
Unknown
Doppler factor
Unknown
Orbital elements
Apogee altitude
358.974 km
Perigee altitude
357.695 km
Semi-major axis
6,736.472 km
Eccentricity
0.00009
Inclination
42.9997°
RAAN
271.2524°
Arg. of periapsis
331.9488°
True anomaly
28.13793°
Mean anomaly
28.1328°
Eccentric anomaly
28.13536°
Mean motion
3.9255 °/min
Orbital period
91.71 mins
BSTAR
0.0023045
Loading maneuver chart data...
Computing Atmospheric mass density...
Loading historical data...
Loading historical data...
Loading historical data...
Loading historical data...
Loading historical data...
Loading historical data...
Loading historical data...

Documentation

Showing up to 5 results
|